Regional Weather Roundup
Issued by NWS Charleston, SC

Current Version | Previous Version | Graphics & Text | Print | Product List | Glossary On
Versions: 1 2 3 4 5 6 7 8 9 10 11 12 13 14 15 16 17 18 19 20 21 22 23 24 25 26 27 28 29 30 31 32 33 34 35 36 37 38 39 40 41 42 43 44 45 46 47 48 49 50
928 ASUS42 KCHS 190827 RWRCHS REGIONAL WEATHER ROUNDUP NATIONAL WEATHER SERVICE CHARLESTON SC 300 AM EST THU JAN 19 2017 NOTE: "FAIR" INDICATES FEW OR NO CLOUDS BELOW 12,000 FEET WITH NO SIGNIFICANT WEATHER AND/OR OBSTRUCTIONS TO VISIBILITY. NOT ALL STATIONS ARE QUALITY CONTROLLED. USE DATA WITH CAUTION... ESPECIALLY DEWPOINT OBSERVATIONS. SCZ027-030-031-034>040-042>050-190900- ...SOUTHEAST SOUTH CAROLINA... CITY SKY/WX TMP DP RH WIND PRES REMARKS N CHARLESTON PTCLDY 57 56 96 CALM 30.02S WATERFRONT PRK N/A 61 59 93 VRB3 30.01R MOUNT PLEASANT LGT RAIN 54 54 100 CALM 30.02S JOHNS ISLAND FAIR 57 57 100 CALM 30.01F PINOPOLIS N/A 57 55 94 VRB3 29.95R MONCKS CORNER FAIR 52 48 87 NE5 30.02F SUMMERVILLE FOG N/A N/A N/A CALM 30.02F VSB 1/2 BEAUFORT MCAS CLEAR 61 57 87 W6 30.03S BEAUFORT ARPT FAIR 61 57 88 NW5 30.01F HILTON HEAD IS CLEAR 61 59 94 VRB5 30.04S WALTERBORO SUNNY 55 55 100 CALM 30.02F ALLENDALE FAIR 57 55 94 CALM 30.02S ...SOUTHERN MIDLANDS AND PEE DEE... CITY SKY/WX TMP DP RH WIND PRES REMARKS GEORGETOWN FAIR 46 45 93 CALM 30.04S KINGSTREE FAIR 46 43 87 CALM 30.04F ORANGEBURG CLEAR 51 47 86 CALM 30.03S BARNWELL FAIR 54 52 94 CALM 30.03F AIKEN FAIR 45 43 93 CALM 30.08S MANNING FAIR 52 41 66 NE3 30.04S COLUMBIA CLEAR 45 41 86 CALM 30.04S SUMTER CLEAR 47 39 75 NE8 30.03R FLORENCE CLEAR 49 40 71 NE7 30.07R MYRTLE BEACH CLEAR 52 46 82 N7 30.07S N MYRTLE BEACH CLEAR 47 47 100 N3 30.04R $$ GAZ063-065-086>088-099>101-113>116-118-119-134>141-150-190900- ...SOUTHEAST GEORGIA... CITY SKY/WX TMP DP RH WIND PRES REMARKS SAVANNAH ARPT CLEAR 59 56 89 W5 30.04S HUNTER AAF CLEAR 57 57 100 W3 30.02S FORT STEWART CLEAR 61 58 90 CALM 30.02S STATESBORO FOG 56 56 100 CALM 30.04S VSB 1/4 SYLVANIA SUNNY N/A N/A N/A NW3 30.05S CLAXTON FAIR N/A N/A N/A CALM 30.05S HAZE ...CSRA...CENTRAL AND FAR SOUTHEAST GEORGIA... CITY SKY/WX TMP DP RH WIND PRES REMARKS THOMSON PTCLDY 52 52 99 CALM 30.09F AUGUSTA-BUSH PTCLDY 51 48 89 CALM N/A AUGUSTA-DANIEL PTCLDY 60 48 64 NW5 30.05F SWAINSBORO FAIR 55 55 100 MISG 30.05F VIDALIA CLEAR 61 61 100 W3 30.05S EASTMAN FAIR 54 54 100 CALM 30.09S FOG HAZLEHURST FAIR 59 59 100 CALM 30.05S FOG ALMA CLEAR 55 55 100 CALM 30.05F WAYCROSS N/A 59 59 100 CALM 30.05F FOG JESUP FAIR 63 57 82 NW3 30.04F BAXLEY FAIR 59 59 100 W3 30.05F BRUNSWICK CLEAR 61 61 100 CALM 30.06S SAINT SIMONS CLEAR 62 58 86 W6 30.05R $$ SCZ027-028-034-036>038-045-046-048>050-GAZ119-141-190900- ...LAKE AND SUPPLEMENTAL COASTAL OBSERVATIONS... STATION/POSITION TIME TEMP WIND PRES WAVE SWELL AIR SEA DIR/SP/G HT/PER HT/PER/DIR (UTC) (F) (DEG/KT/KT) (MB) (FT/S) (FT/S/D) WINYAH BAY 0745 57 40/ 6 1017.0R LAKE MURRAY 0750 54 20/ 2/ 3 1016.9S ACE BASIN NERRS 0745 58 250/ 1 1017.0S FORT PULASKI 0800 61 57 270/ 4/ 5 1017.3 SAPELO ISLAND 0800 62 310/ 3 1017.0 $$ ANZ835-935-AMZ111-154-330-350-352-354-370-450-454-472-190900- ...C-MAN AND BUOY OBSERVATIONS... STATION/POSITION TIME TEMP WIND PRES WAVE SWELL AIR SEA DIR/SP/G HT/PER HT/PER/DIR (UTC) (F) (DEG/KT/KT) (MB) (FT/S) (FT/S/D) BUOY 41004 0750 68 71 20/ 2/ 2 1015.6S 2/ 5 2/200/ 5 BUOY 41008 0750 61 60 330/ 6/ 8 1017.1R 1/ 8 FOLLY BEACH CMAN 0800 60 330/ 3/ 3 1016.9S CAPERS NEARSHORE 0708 57 55 20/ 4/ 6 1016.3R FRIPP NEARSHORE 0808 60 57 300/ 6/ 6 1016.3F STATION/POSITION TIME TEMP WIND PRES WAVE SWELL AIR SEA DIR/SP/G HT/PER HT/PER/DIR (UTC) (F) (DEG/KT/KT) (MB) (FT/S) (FT/S/D) 5E ST. MARYS GA 0800 63 N/A 1/10 FRYING PAN BUOY 0810 64 71 50/ 8/ 12 1016.5 BUOY 41025 0750 53 75 360/ 14/ 19 1016.5R 5/ 8 3/ 40/ 8 CAPE LOOKOUT NC 0800 51 10/ 9/ 10 1016.2F BUOY 41002 0750 67 72 10/ 16/ 19 1014.7F 8/ 7 5/270/14 BUOY 41010 NOT AVBL ST AUGUSTINE FL 0800 63 62 280/ 5/ 7 1018.6S $$

USA.gov is the U.S. government's official web portal to all federal, state and local government web resources and services.